AEHF 1 (USA 214) - Orbit

View from above orbital plane
View from above orbital plane
View from above satellite
View from above satellite

Ground track
Ground track

The orbit data is extracted from the following two-line orbital elements,

1 36868U 10039A   13128.32173279 0.00000000  00000-0  00000-0 0    06
2 36868   3.1927 273.0818 0004535 136.7083 223.3439  1.00270000    05
Epoch (UTC): 08 May 2013 07:43:17
Eccentricity: 0.0004535
inclination: 3.1927°
perigee height: 35767 km
apogee height: 35806 km
right ascension of ascending node: 273.0818°
argument of perigee: 136.7083°
revolutions per day: 1.00270000
mean anomaly at epoch: 223.3439°
orbit number at epoch: 0

The dashed part of the orbit path shows where the satellite is in the earth's shadow,  

Developed and maintained by Chris Peat, Heavens-Above GmbH. Please read the updated FAQ before sending e-mail. Imprint. DLR